CW6617 Weather Reports


time (UTC)temp
C
wind
direction
speed
KPH
gust
KPH
rain 1hr
cm
rain 24hr
cm
rain mn
cm
humidity
%
barometer
mb
20260904051204 19 184 8.0 14.5 0.00 0.00 0.00 91 1011.2
20260904050704 19 197 11.3 24.1 0.00 0.00 0.00 91 1011.1
20260904050204 19 188 11.3 33.8 0.00 0.00 0.00 91 1011.1
20260904044706 20 178 9.7 14.5 0.00 0.00 0.00 91 1011.1
20260904044204 20 187 11.3 20.9 0.00 0.00 0.00 91 1011.2
20260904043703 20 177 12.9 25.7 0.00 0.00 0.00 91 1011.3
20260904043204 20 175 16.1 29.0 0.00 0.00 0.00 90 1011.4
20260904041204 20 178 19.3 32.2 0.00 0.00 0.00 90 1011.6
20260904040705 20 187 19.3 29.0 0.00 0.00 0.00 90 1011.6
20260904040204 20 175 11.3 38.6 0.00 0.00 0.00 90 1011.6
20260904034203 20 189 16.1 32.2 0.00 0.00 0.00 90 1011.6
20260904033703 20 180 16.1 25.7 0.00 0.00 0.00 90 1011.6
20260904033204 20 182 17.7 32.2 0.00 0.00 0.00 90 1011.7
20260904031704 19 202 9.7 33.8 0.00 0.00 0.00 90 1012.1
20260904031204 19 180 14.5 32.2 0.00 0.00 0.00 90 1012.2
20260904030204 19 193 11.3 33.8 0.00 0.00 0.00 90 1012.1
20260904024204 19 186 19.3 32.2 0.00 0.00 0.00 89 1012.2
20260904023204 19 182 14.5 33.8 0.00 0.00 0.00 89 1012.3
20260904020704 19 181 14.5 22.5 0.00 0.00 0.00 88 1012.5
20260904014703 19 183 17.7 27.4 0.00 0.00 0.00 88 1012.8
20260904014205 19 182 11.3 27.4 0.00 0.00 0.00 88 1013.0
20260904013704 19 208 11.3 29.0 0.00 0.00 0.00 87 1013.1
20260904013203 19 198 12.9 32.2 0.00 0.00 0.00 87 1013.0
20260904011704 19 177 19.3 27.4 0.00 0.00 0.00 87 1013.0
20260904010704 20 176 14.5 25.7 0.00 0.00 0.00 86 1013.1
20260904010204 20 182 17.7 29.0 0.00 0.00 0.00 86 1013.0
20260904004703 20 176 12.9 22.5 0.00 0.00 0.00 86 1013.4
20260904004204 20 164 19.3 38.6 0.00 0.00 0.00 86 1013.4
20260904003703 20 173 20.9 27.4 0.00 0.00 0.00 86 1013.4
20260904003204 19 178 11.3 25.7 0.00 0.00 0.00 86 1013.5
20260904001703 19 176 19.3 33.8 0.00 0.00 0.00 87 1013.9
20260904001203 19 177 9.7 29.0 0.00 0.00 0.00 87 1014.1
20260904000705 19 167 16.1 25.7 0.00 0.00 0.00 87 1014.2
20260904000204 19 177 14.5 29.0 0.00 0.00 0.00 87 1014.3
20260903234704 19 167 16.1 22.5 0.00 0.00 0.00 88 1014.5
20260903234204 19 183 14.5 24.1 0.00 0.00 0.00 88 1014.5
20260903233704 19 172 11.3 22.5 0.00 0.00 0.00 88 1014.6
20260903233204 19 178 14.5 27.4 0.00 0.00 0.00 88 1014.7
20260903231705 19 171 11.3 20.9 0.00 0.00 0.00 88 1014.9
20260903231204 19 184 9.7 16.1 0.00 0.00 0.00 88 1014.9
20260903230704 19 184 9.7 22.5 0.00 0.00 0.00 88 1015.0
20260903230204 19 183 12.9 22.5 0.00 0.00 0.00 88 1015.0
20260903224704 19 180 8.0 19.3 0.00 0.00 0.00 88 1015.2
20260903224204 19 196 9.7 16.1 0.00 0.00 0.00 88 1015.3
20260903223704 19 196 4.8 20.9 0.00 0.00 0.00 88 1015.3
20260903223204 19 173 8.0 22.5 0.00 0.00 0.00 87 1015.3
20260903221204 20 200 3.2 14.5 0.00 0.00 0.00 87 1015.4
20260903220704 20 182 3.2 11.3 0.00 0.00 0.00 86 1015.4
20260903220204 20 177 6.4 14.5 0.00 0.00 0.00 86 1015.5
20260903214704 20 179 6.4 11.3 0.00 0.00 0.00 85 1016.0
20260903214204 20 187 6.4 11.3 0.00 0.00 0.00 85 1016.1
20260903213704 20 185 6.4 20.9 0.00 0.00 0.00 85 1016.1
20260903213206 20 198 8.0 20.9 0.00 0.00 0.00 85 1016.1
20260903211204 20 206 4.8 27.4 0.00 0.00 0.00 85 1016.1
20260903210704 20 241 4.8 12.9 0.00 0.00 0.00 85 1016.1
20260903204704 20 206 8.0 24.1 0.00 0.00 0.00 86 1016.1
20260903204204 20 184 6.4 16.1 0.00 0.00 0.00 86 1016.1
20260903203203 20 187 8.0 25.7 0.00 0.00 0.00 86 1016.0
20260903200204 21 177 9.7 22.5 0.00 0.00 0.00 85 1016.1
20260903194705 21 176 11.3 22.5 0.00 0.00 0.00 84 1015.9
20260903194204 21 185 11.3 19.3 0.00 0.00 0.00 84 1015.9
20260903193704 21 182 11.3 25.7 0.00 0.00 0.00 84 1016.0
20260903193204 21 191 9.7 22.5 0.00 0.00 0.00 84 1016.0
20260903191704 21 200 11.3 29.0 0.00 0.00 0.00 83 1016.1
20260903191204 21 191 8.0 20.9 0.00 0.00 0.00 82 1016.1
20260903190704 21 192 9.7 25.7 0.00 0.00 0.00 82 1016.2
20260903190205 22 178 11.3 29.0 0.00 0.00 0.00 81 1016.3
20260903184704 22 188 8.0 20.9 0.00 0.00 0.00 81 1016.1
20260903184204 22 191 8.0 32.2 0.00 0.00 0.00 80 1015.9
20260903183705 22 186 11.3 35.4 0.00 0.00 0.00 80 1016.0
20260903183204 22 182 14.5 27.4 0.00 0.00 0.00 79 1016.1
20260903181704 23 177 6.4 20.9 0.00 0.00 0.00 78 1015.9
20260903181203 23 181 11.3 24.1 0.00 0.00 0.00 78 1015.9
20260903180703 23 174 16.1 25.7 0.00 0.00 0.00 77 1016.0
20260903180205 23 182 14.5 29.0 0.00 0.00 0.00 76 1016.0
20260903174205 24 194 4.8 19.3 0.00 0.00 0.00 72 1016.0
20260903173704 24 206 8.0 14.5 0.00 0.00 0.00 72 1016.0
20260903173204 24 176 9.7 20.9 0.00 0.00 0.00 72 1016.1
20260903171204 25 184 9.7 16.1 0.00 0.00 0.00 69 1016.0
20260903170704 25 176 11.3 19.3 0.00 0.00 0.00 70 1016.0
20260903170204 25 242 8.0 25.7 0.00 0.00 0.00 69 1015.9
20260903164704 25 215 8.0 16.1 0.00 0.00 0.00 69 1016.1
20260903164203 25 264 6.4 19.3 0.00 0.00 0.00 69 1016.1
20260903163704 25 181 9.7 24.1 0.00 0.00 0.00 70 1016.1
20260903161704 25 185 9.7 20.9 0.00 0.00 0.00 71 1016.2
20260903161205 25 181 4.8 14.5 0.00 0.00 0.00 72 1016.1
20260903160704 25 191 11.3 22.5 0.00 0.00 0.00 71 1016.2
20260903160204 25 172 12.9 20.9 0.00 0.00 0.00 70 1016.3
20260903154704 25 189 12.9 24.1 0.00 0.00 0.00 67 1016.4
20260903154204 26 208 11.3 27.4 0.00 0.00 0.00 68 1016.5
20260903153705 26 174 8.0 25.7 0.00 0.00 0.00 68 1016.5
20260903151703 26 245 9.7 24.1 0.00 0.00 0.00 63 1016.5
20260903151203 27 184 12.9 40.2 0.00 0.00 0.00 63 1016.5
20260903150704 27 200 9.7 27.4 0.00 0.00 0.00 63 1016.5
20260903150204 27 196 11.3 33.8 0.00 0.00 0.00 63 1016.5
20260903144704 27 240 8.0 14.5 0.00 0.00 0.00 63 1016.6
20260903144204 27 259 14.5 27.4 0.00 0.00 0.00 62 1016.8
20260903143703 27 218 8.0 19.3 0.00 0.00 0.00 63 1016.8
20260903143204 26 183 8.0 27.4 0.00 0.00 0.00 64 1016.7
20260903141704 26 185 14.5 27.4 0.00 0.00 0.00 66 1016.8
20260903141204 26 185 11.3 20.9 0.00 0.00 0.00 67 1016.8
20260903140705 25 200 4.8 16.1 0.00 0.00 0.00 68 1016.8
20260903140204 25 175 4.8 19.3 0.00 0.00 0.00 67 1016.8
20260903134203 25 187 4.8 19.3 0.00 0.00 0.00 66 1017.1
20260903133705 25 199 3.2 16.1 0.00 0.00 0.00 66 1017.2
20260903133203 25 192 3.2 20.9 0.00 0.00 0.00 64 1017.2
20260903131704 26 207 11.3 24.1 0.00 0.00 0.00 65 1017.3
20260903131203 26 201 6.4 16.1 0.00 0.00 0.00 66 1017.3
20260903130704 26 200 9.7 22.5 0.00 0.00 0.00 66 1017.4
20260903130204 25 242 8.0 24.1 0.00 0.00 0.00 67 1017.3
20260903124203 24 264 4.8 16.1 0.00 0.00 0.00 71 1017.5
20260903123203 23 194 8.0 22.5 0.00 0.00 0.00 71 1017.7
20260903120203 24 232 8.0 27.4 0.00 0.00 0.00 68 1017.7
20260903114704 25 296 3.2 12.9 0.00 0.00 0.00 69 1017.5
20260903114204 25 183 4.8 20.9 0.00 0.00 0.00 69 1017.5
20260903113704 25 202 9.7 19.3 0.00 0.00 0.00 70 1017.5
20260903113203 24 236 8.0 19.3 0.00 0.00 0.00 71 1017.5
20260903111704 23 205 8.0 22.5 0.00 0.00 0.00 73 1017.6
20260903111204 23 181 8.0 19.3 0.00 0.00 0.00 73 1017.7
20260903110704 23 216 11.3 20.9 0.00 0.00 0.00 73 1017.7
20260903110203 23 225 4.8 27.4 0.00 0.00 0.00 74 1017.6
20260903104704 23 187 4.8 16.1 0.00 0.00 0.00 78 1017.9
20260903104205 22 175 8.0 20.9 0.00 0.03 0.00 78 1017.8
20260903103705 22 268 3.2 12.9 0.00 0.03 0.00 77 1017.9
20260903103204 22 182 9.7 20.9 0.00 0.03 0.00 79 1017.8
20260903101704 21 205 8.0 24.1 0.00 0.03 0.00 81 1017.9
20260903101204 21 187 8.0 20.9 0.00 0.03 0.00 81 1017.9
20260903100703 21 226 3.2 11.3 0.00 0.03 0.00 80 1017.9
20260903100204 22 274 9.7 20.9 0.00 0.03 0.00 79 1017.9
20260903094704 21 208 4.8 14.5 0.00 0.03 0.00 82 1017.8
20260903094203 21 185 6.4 19.3 0.00 0.03 0.00 81 1017.8
20260903093204 21 254 6.4 16.1 0.00 0.05 0.00 82 1018.0
20260903091704 20 269 1.6 8.0 0.00 0.15 0.00 85 1018.1
20260903091204 20 195 1.6 4.8 0.00 0.15 0.00 85 1018.1
20260903090704 20 266 4.8 16.1 0.00 0.15 0.00 85 1018.2
20260903090203 20 288 3.2 16.1 0.00 0.15 0.00 85 1018.2
20260903084703 20 297 8.0 20.9 0.00 0.15 0.00 85 1018.0
20260903084204 20 189 4.8 12.9 0.00 0.15 0.00 86 1018.0
20260903083704 20 228 4.8 12.9 0.00 0.15 0.00 86 1017.9
20260903083204 20 217 6.4 20.9 0.00 0.15 0.00 86 1017.8
20260903081703 20 213 8.0 20.9 0.00 0.15 0.00 87 1017.6
20260903081204 19 233 4.8 12.9 0.00 0.15 0.00 88 1017.6
20260903080704 19 257 8.0 16.1 0.00 0.15 0.00 88 1017.4
20260903080204 19 232 3.2 19.3 0.00 0.15 0.00 88 1017.3
20260903074703 19 179 9.7 20.9 0.00 0.15 0.00 89 1017.1
20260903073704 18 194 11.3 19.3 0.00 0.15 0.00 89 1016.8
20260903073204 18 210 4.8 20.9 0.00 0.15 0.00 90 1016.9
20260903071705 18 179 8.0 14.5 0.00 0.15 0.00 90 1016.7
20260903071204 18 186 8.0 22.5 0.00 0.15 0.00 90 1016.6
20260903070704 18 176 6.4 20.9 0.00 0.15 0.00 90 1016.6
20260903070203 18 180 9.7 20.9 0.00 0.15 0.00 90 1016.4
20260903064704 18 190 6.4 19.3 0.00 0.15 0.00 91 1017.0
20260903063705 18 203 3.2 12.9 0.00 0.15 0.00 91 1016.8
20260903063204 18 199 4.8 14.5 0.00 0.15 0.00 91 1016.9
20260903061703 18 205 4.8 12.9 0.00 0.15 0.00 91 1016.8
20260903061205 18 209 1.6 8.0 0.00 0.15 0.00 91 1016.8
20260903060704 18 240 6.4 11.3 0.00 0.15 0.00 91 1016.8
20260903060204 18 200 4.8 19.3 0.00 0.15 0.00 91 1016.8
20260903054705 18 193 3.2 11.3 0.00 0.15 0.00 91 1016.8
20260903054204 18 184 4.8 11.3 0.00 0.15 0.00 91 1016.8
20260903053705 18 170 3.2 8.0 0.00 0.15 0.00 91 1016.8
20260903051703 18 182 4.8 9.7 0.00 0.15 0.00 92 1016.4